This is the latest recevied weather packets stored in our database for station/object IW3HBX-3. If no packets are shown the sender has not sent any weather packets the latest 10 day(s).
| Time | Temp. | Humidity | Pressure | Rain* | Wind** | Luminosity | Snow |
|---|---|---|---|---|---|---|---|
| 1776947110 | 20° C | 38% | 1021.3 hPa | 0 mm | - | 761 W/m² | - |
| 1776946511 | 20° C | 37% | 1021.4 hPa | 0 mm | - | 770 W/m² | - |
| 1776946211 | 19.44° C | 39% | 1021.4 hPa | 0 mm | - | 775 W/m² | - |
| 1776945911 | 20° C | 38% | 1021.6 hPa | 0 mm | - | 778 W/m² | - |
| 1776945612 | 20° C | 38% | 1021.8 hPa | 0 mm | - | 783 W/m² | - |
| 1776945312 | 20° C | 37% | 1021.6 hPa | 0 mm | - | 792 W/m² | - |
| 1776945012 | 19.44° C | 38% | 1021.8 hPa | 0 mm | - | 792 W/m² | - |
| 1776944712 | 20° C | 39% | 1021.8 hPa | 0 mm | - | 793 W/m² | - |
| 1776944413 | 19.44° C | 38% | 1022 hPa | 0 mm | - | 801 W/m² | - |
| 1776944113 | 19.44° C | 38% | 1021.9 hPa | 0 mm | - | 794 W/m² | - |
| 1776943813 | 18.89° C | 39% | 1022 hPa | 0 mm | - | 797 W/m² | - |
| 1776943513 | 20° C | 40% | 1022.1 hPa | 0 mm | - | 800 W/m² | - |
| 1776943214 | 19.44° C | 40% | 1022.1 hPa | 0 mm | - | 791 W/m² | - |
| 1776942914 | 18.89° C | 40% | 1022.3 hPa | 0 mm | - | 795 W/m² | - |
| 1776942614 | 18.89° C | 39% | 1022.4 hPa | 0 mm | - | 747 W/m² | - |
| 1776942314 | 19.44° C | 40% | 1022.4 hPa | 0 mm | - | 799 W/m² | - |
| 1776942023 | 19.44° C | 40% | 1022.6 hPa | 0 mm | - | 796 W/m² | - |
| 1776941715 | 19.44° C | 41% | 1022.6 hPa | 0 mm | - | 791 W/m² | - |
| 1776941415 | 18.89° C | 40% | 1022.7 hPa | 0 mm | - | 797 W/m² | - |
| 1776941115 | 18.89° C | 40% | 1022.7 hPa | 0 mm | - | 790 W/m² | - |
| 1776940815 | 18.33° C | 41% | 1022.8 hPa | 0 mm | - | 776 W/m² | - |
| 1776940516 | 18.89° C | 41% | 1022.9 hPa | 0 mm | - | 776 W/m² | - |
| 1776939916 | 19.44° C | 41% | 1023 hPa | 0 mm | - | 765 W/m² | - |
| 1776939317 | 18.89° C | 40% | 1023 hPa | 0 mm | - | 760 W/m² | - |
| 1776939017 | 18.33° C | 40% | 1023.2 hPa | 0 mm | - | 753 W/m² | - |
* Rain latest hour (hover to see other rain measurements)
** Current wind speed in m/s (hover to see current wind gust speed)